Location: *
(60.1759°S, 155.0663°W)
Time: 01:52:59
(UTC+00:00)

Cosmos 1400 Rocket - Pass Details

Date: 17 September 2019
Orbit: 522 x 568 km, 81.2° (Epoch: 18 October)

Event Time Altitude Azimuth Distance (km) Brightness Sun altitude
Rises 12:28:41 0° 197° (SSW) 2,823 6.9 -26.7°
Reaches altitude 10° 12:30:55 10° 196° (SSW) 1,916 6.0 -26.5°
Enters shadow 12:34:02 48° 188° (S) 771 3.7 -26.2°
